Grand Island, NE

1:44 PM CDT on September 29, 2016 (GMT -0500)
Central Nebraska Regional

Weather History for KGRI - December, 2012

Change the Weather History Date:

Sunday, December 23, 2012

  Actual Average Record
Temperature  
Mean Temperature 13 °F 25 °F  
Max Temperature 21 °F 35 °F 76 °F (1964)
Min Temperature 5 °F 15 °F -17 °F (1989)
Degree Days  
Heating Degree Days 52 40  
Month to date heating degree days 717 869  
Since 1 July heating degree days 1917 2199  
Cooling Degree Days 0 0  
Month to date cooling degree days 0 0  
Year to date cooling degree days 1507 1034  
Moisture  
Dew Point 9 °F    
Average Humidity 80    
Maximum Humidity 92    
Minimum Humidity 67    
Precipitation  
Precipitation 0.00 in 0.02 in 0.27 in (2009)
Month to date precipitation 1.56 0.49  
Year to date precipitation 11.45 26.52  
Sea Level Pressure  
Sea Level Pressure 30.09 in    
Wind  
Wind Speed 6 mph (NNW)    
Max Wind Speed 20 mph    
Max Gust Speed 24 mph    
Visibility 9 miles    
Events      
T = Trace of Precipitation, MM = Missing Value Source: NWS Daily Summary

Daily Weather History Graph

Daily Weather History Graph

Search for Another Location

Airport or City:

Trip Planner

Search our weather history database for the weather conditions in past years. The results will help you decide how hot, cold, wet, or windy it might be!

Date:

Astronomy

Dec. 23, 2012 Rise Set
Actual Time 7:55 AM CST 5:09 PM CST
Civil Twilight 7:24 AM CST 5:40 PM CST
Nautical Twilight 6:49 AM CST 6:15 PM CST
Astronomical Twilight 6:16 AM CST 6:48 PM CST
Moon 2:02 PM CST (12/23) 3:38 AM CST (12/23)
Length of Visible Light 10h 16m
Length of Day
9h 13m
Waxing Gibbous, 82% of the Moon is Illuminated
Dec 23
Waxing Gibbous
Dec 28
Full
Jan 4
Last Quarter
Jan 11
New
Jan 18
First Quarter

Hourly Weather History & Observations

Time (CST) Temp. Windchill Dew Point Humidity Pressure Visibility Wind Dir Wind Speed Gust Speed Precip Events Conditions
1:53 AM 12.9 °F 5.2 °F 10.0 °F 88% 30.09 in 9.0 mi NNW 4.6 mph - N/A   Clear
2:53 AM 12.9 °F -1.6 °F 10.0 °F 88% 30.10 in 9.0 mi NNW 12.7 mph - N/A   Clear
3:53 AM 10.0 °F -3.7 °F 7.0 °F 87% 30.09 in 9.0 mi North 10.4 mph - N/A   Clear
4:53 AM 10.9 °F -1.8 °F 8.1 °F 88% 30.09 in 9.0 mi NNW 9.2 mph - N/A   Clear
5:53 AM 10.0 °F -1.9 °F 7.0 °F 87% 30.09 in 9.0 mi NNW 8.1 mph - N/A   Clear
6:53 AM 8.1 °F -4.3 °F 5.0 °F 87% 30.09 in 9.0 mi NNW 8.1 mph - N/A   Clear
7:53 AM 7.0 °F -1.7 °F 3.9 °F 87% 30.10 in 8.0 mi NNW 4.6 mph - N/A   Clear
8:53 AM 5.0 °F -6.9 °F 1.9 °F 87% 30.09 in 7.0 mi North 6.9 mph - N/A   Clear
9:53 AM 10.0 °F 0.4 °F 5.0 °F 80% 30.12 in 8.0 mi North 5.8 mph - N/A   Clear
10:53 AM 12.9 °F 5.2 °F 8.1 °F 81% 30.13 in 10.0 mi North 4.6 mph - N/A   Unknown
11:53 AM 15.1 °F - 10.0 °F 80% 30.09 in 10.0 mi Calm Calm - N/A   Clear
12:53 PM 16.0 °F - 10.9 °F 81% 29.97 in 9.0 mi Calm Calm - N/A   Clear
1:53 PM 19.0 °F 11.1 °F 10.9 °F 71% 30.05 in 9.0 mi West 5.8 mph - N/A   Clear
2:53 PM 19.0 °F 12.3 °F 12.0 °F 74% 30.03 in 10.0 mi West 4.6 mph - N/A   Clear
3:53 PM 19.9 °F 13.4 °F 12.9 °F 74% 30.03 in 10.0 mi NW 4.6 mph - N/A   Clear
4:53 PM 21.0 °F 16.2 °F 14.0 °F 74% 30.04 in 10.0 mi WNW 3.5 mph - N/A   Clear
5:53 PM 17.1 °F 10.0 °F 12.9 °F 84% 30.06 in 10.0 mi NW 4.6 mph - N/A   Clear
6:53 PM 17.1 °F 11.7 °F 12.9 °F 84% 30.06 in 9.0 mi NE 3.5 mph - N/A   Clear
7:53 PM 12.9 °F - 9.0 °F 84% 30.11 in 8.0 mi Calm Calm - N/A   Clear
8:53 PM 12.0 °F -0.4 °F 9.0 °F 88% 30.13 in 7.0 mi NNW 9.2 mph - N/A   Clear
9:53 PM 14.0 °F 3.9 °F 10.9 °F 88% 30.14 in 8.0 mi NNW 6.9 mph - N/A   Clear
10:53 PM 15.1 °F 0.5 °F 9.0 °F 77% 30.14 in 10.0 mi NNW 13.8 mph - N/A   Unknown
11:53 PM 12.9 °F -2.2 °F 6.1 °F 74% 30.16 in 10.0 mi NNW 13.8 mph 24.2 mph N/A   Clear